[[{"header":{"parameterUnit":"m.s-1","parameterCategory":1,"la1":30.2991,"la2":30.254,"lo1":-89.0895,"lo2":-89.0444,"dy":0.0017,"dx":0.0017,"nx":28,"ny":28,"refTime":"2023-07-21T09:00:00:Z","depth":0,"parameterNumber":2,"parameterNumberName":"U-component_of_WINDS"},"data":[0,0,0,0,0,0,0,0,0,0,0,0,0,0,0,0,0,0,0,0,0,0,0,0,0,0,0,0,0,0,0,0,0,0,0,0,0,0,0,0,0,0,0,0,0,0,0,0,0,0,0,0,0,0,0,0,0,0,4.7591,4.7592,0,4.7746,4.7747,4.7749,4.769,4.7687,4.7683,4.768,4.7843,4.785,4.7858,0,0,0,0,0,0,0,0,0,0,0,0,0,4.7246,4.7253,4.759,4.7592,4.7594,4.7745,4.7748,4.775,4.7691,4.7687,4.7682,4.7678,4.784,4.7849,4.7858,0,0,0,0,0,0,0,0,0,0,0,0,0,4.7398,4.7255,4.759,4.7583,4.7584,4.7745,4.7748,4.775,4.7692,4.7687,4.7681,4.7676,4.7837,4.7848,4.786,4.8038,0,0,4.7895,4.79,0,0,0,0,0,0,0,0,4.7389,4.7411,4.7582,4.7584,4.7585,4.7693,4.7686,4.7847,4.7693,4.7651,4.768,4.7674,4.7797,4.7812,4.7853,4.8045,4.8052,4.7896,4.7903,4.7908,4.7911,0,0,0,0,0,0,0,4.7379,4.7404,4.7652,4.7585,4.7587,4.7573,4.7589,4.7716,4.7753,4.7654,4.765,4.7669,4.7797,4.7842,4.7856,4.8055,4.7895,4.7906,4.7913,4.7917,4.84,4.8406,0,0,0,0,0,0,4.7367,4.7395,4.7647,4.7657,4.7472,4.7584,4.7601,4.7664,4.7751,4.7759,4.7674,4.7666,4.7825,4.7843,4.7862,4.8075,4.7907,4.7918,4.7925,4.8394,4.8401,4.8408,0,0,0,0,0,0,4.736,4.739,4.7641,4.7525,4.7556,4.7595,4.7666,4.767,4.7714,4.7766,4.7772,4.7713,4.7821,4.7846,4.7994,4.808,4.7923,4.7934,4.8387,4.8396,4.8405,4.8504,0,0,0,0,0,0,4.7351,4.7388,4.7456,4.7527,4.7562,4.777,4.7672,4.7677,4.7734,4.7725,4.7804,4.7812,4.7819,4.7977,4.8005,4.8093,4.7943,4.838,4.8391,4.8402,4.8494,4.8516,4.8534,0,0,0,0,0,4.7338,4.7479,4.7459,4.749,4.7647,4.7775,4.7795,4.78,4.7741,4.781,4.7842,4.7809,4.8066,4.7993,4.8024,4.8117,4.8374,4.8388,4.8401,4.8484,4.8511,4.8534,0,0,0,0,0,0,4.7418,4.7488,4.7467,4.7635,4.7699,4.7765,4.7851,4.7828,4.7912,4.7901,4.7904,4.7922,4.8075,4.811,4.8027,4.8293,4.8211,4.8232,4.8264,4.829,4.831,4.8298,4.7952,0,0,0,0,0,4.7455,4.7552,4.7608,4.775,4.7783,4.7812,4.7868,4.7866,4.7933,4.796,4.8004,4.8072,4.8167,4.8231,4.8322,4.8498,4.8514,4.8577,4.8598,4.8614,4.8632,4.8727,4.8756,4.8452,4.8451,4.8451,0,0,4.7533,4.7583,4.7644,4.7767,4.7817,4.7918,4.7835,4.7946,4.8021,4.7978,4.812,4.8154,4.823,4.8393,4.8467,4.8427,4.8719,4.8631,4.8644,4.8653,4.8744,4.8773,4.8798,4.8461,4.8459,4.8458,0,0,4.7726,4.7773,4.7896,4.7947,4.8023,4.8041,4.807,4.814,4.816,4.8303,4.8272,4.8362,4.8527,4.8582,4.8631,4.8844,4.8816,4.8873,4.898,4.9073,4.9097,4.9118,4.9194,4.9221,4.8891,4.8891,4.8891,0,4.7813,4.7963,4.7963,4.8076,4.8131,4.8094,4.8219,4.8269,4.8372,4.8411,4.8365,4.857,4.8619,4.8794,4.8845,4.8887,4.8921,4.8865,4.9093,4.9115,4.9135,4.9207,4.9235,4.8897,4.8897,4.8896,4.8895,0,4.8066,4.817,4.8261,4.8359,4.8424,4.8543,4.8561,4.8628,4.862,4.8643,4.8788,4.8844,4.8946,4.8987,4.8981,4.9162,4.9134,4.9091,4.9009,4.917,4.9238,4.9265,4.8907,4.8904,4.8902,4.8901,0,0,4.8315,4.841,4.8443,4.8486,4.8567,4.8648,4.8765,4.8862,4.8919,4.8991,4.9089,4.9229,4.9189,4.9245,4.9245,4.9326,4.949,4.9273,4.9275,4.9311,4.9692,4.9724,4.9756,4.9472,4.9477,4.9481,4.9685,0,4.8514,4.8717,4.872,4.8907,4.9004,4.897,4.9071,4.9132,4.9156,4.9242,4.9269,4.9368,4.9308,4.9342,4.9421,4.9453,4.9567,4.9439,4.9564,4.9568,4.9546,4.9791,4.9826,5.0015,4.9712,4.9716,4.9719,0,4.8773,4.8851,4.9048,4.9113,4.9153,4.9244,4.9334,4.9416,4.9484,4.9496,4.9558,4.9545,4.9665,4.9578,4.9743,4.9656,4.9708,4.9731,4.9739,4.9751,4.9654,4.981,5.0076,5.0104,4.9761,4.9758,4.9755,0,4.8934,4.9089,4.9226,4.9264,4.9344,4.9408,4.9445,4.9507,4.9566,4.9644,4.9682,4.9774,4.9824,4.9896,4.9908,4.9844,5.0074,4.9989,5.0087,5.0087,5.0137,5.0134,5.0416,5.0171,5.017,5.017,5.0169,0,4.9156,4.9278,4.9299,4.9384,4.9519,4.9521,4.9655,4.9686,4.9742,4.9832,4.9809,4.9895,4.9906,4.9994,5.0005,5.0139,5.0163,5.0176,5.0177,5.0178,5.0177,5.0212,5.0199,5.0177,5.0176,5.0174,5.0173,0,4.936,4.9379,4.9526,4.9588,4.9607,4.9704,4.9757,4.9839,4.9859,4.9974,5.0001,5.0035,5.0138,5.0157,5.0279,5.0286,5.0447,5.0435,5.0424,5.0422,5.0519,5.051,5.0834,5.0876,5.0604,5.0606,5.0609,0,4.95,4.9592,4.9664,4.9722,4.9761,4.9856,4.9914,4.992,4.9982,5.0066,5.0137,5.0237,5.0317,5.0483,5.052,5.0613,5.0603,5.071,5.0617,5.0614,5.0604,5.0598,5.0607,5.0728,5.0731,5.0733,5.0735,0,4.9747,4.9752,4.9836,4.9925,4.9995,5.0065,5.0131,5.0181,5.0195,5.0267,5.037,5.0433,5.0556,5.0656,5.0748,5.0786,5.0764,5.0764,5.0791,5.0793,5.0782,5.0789,5.0472,5.0756,5.0754,5.0753,5.0752,5.0751,4.9923,5.0003,5.0066,5.0161,5.0211,5.0273,5.0352,5.0382,5.0469,5.0568,5.0567,5.0681,5.0746,5.0867,5.0911,5.1001,5.0967,5.1007,5.1017,5.1027,5.1036,5.0768,5.1018,5.1017,5.1017,5.1016,5.1016,0,5.0169,5.0207,5.0294,5.0387,5.0462,5.0432,5.0503,5.0568,5.0668,5.073,5.0809,5.0928,5.1024,5.1067,5.1162,5.1226,5.1218,5.1251,5.1246,5.1255,5.1061,5.1028,5.1255,5.1255,5.1255,5.1255,5.1255,5.1255,5.0306,5.0439,5.0451,5.0609,5.0646,5.0756,5.08,5.0857,5.0906,5.104,5.1119,5.1146,5.12,5.1298,5.1385,5.1395,5.1431,5.1469,5.1475,5.1293,5.1269,5.1246,5.1214,5.1477,5.1477,5.1661,5.1663,5.1664]},{"header":{"parameterUnit":"m.s-1","parameterCategory":1,"la1":30.2991,"la2":30.254,"lo1":-89.0895,"lo2":-89.0444,"dy":0.0017,"dx":0.0017,"nx":28,"ny":28,"refTime":"2023-07-21T09:00:00:Z","depth":0,"parameterNumber":3,"parameterNumberName":"V-component_of_WINDS"},"data":[0,0,0,0,0,0,0,0,0,0,0,0,0,0,0,0,0,0,0,0,0,0,0,0,0,0,0,0,0,0,0,0,0,0,0,0,0,0,0,0,0,0,0,0,0,0,0,0,0,0,0,0,0,0,0,0,0,0,-0.0736,-0.0736,0,-0.0738,-0.0738,-0.0738,-0.0738,-0.0738,-0.0738,-0.0738,-0.074,-0.074,-0.074,0,0,0,0,0,0,0,0,0,0,0,0,0,-0.0731,-0.0731,-0.0736,-0.0736,-0.0736,-0.0738,-0.0738,-0.0738,-0.0738,-0.0738,-0.0738,-0.0738,-0.074,-0.074,-0.074,0,0,0,0,0,0,0,0,0,0,0,0,0,-0.0733,-0.0731,-0.0736,-0.0736,-0.0736,-0.0738,-0.0738,-0.0738,-0.0738,-0.0738,-0.0738,-0.0738,-0.074,-0.074,-0.074,-0.0742,0,0,-0.074,-0.074,0,0,0,0,0,0,0,0,-0.0733,-0.0733,-0.0736,-0.0736,-0.0736,-0.0738,-0.0737,-0.0739,-0.0738,-0.0737,-0.0738,-0.0738,-0.0739,-0.0739,-0.074,-0.0742,-0.0742,-0.074,-0.074,-0.0741,-0.0741,0,0,0,0,0,0,0,-0.0733,-0.0733,-0.0737,-0.0736,-0.0736,-0.0736,-0.0736,-0.0738,-0.0738,-0.0737,-0.0737,-0.0737,-0.0739,-0.074,-0.074,-0.0742,-0.074,-0.0741,-0.0741,-0.0741,-0.0746,-0.0746,0,0,0,0,0,0,-0.0733,-0.0733,-0.0736,-0.0737,-0.0734,-0.0736,-0.0736,-0.0737,-0.0738,-0.0738,-0.0737,-0.0737,-0.0739,-0.074,-0.074,-0.0742,-0.0741,-0.0741,-0.0741,-0.0746,-0.0746,-0.0746,0,0,0,0,0,0,-0.0733,-0.0733,-0.0736,-0.0735,-0.0735,-0.0736,-0.0737,-0.0737,-0.0738,-0.0739,-0.0739,-0.0738,-0.0739,-0.074,-0.0741,-0.0742,-0.0741,-0.0741,-0.0746,-0.0746,-0.0746,-0.0747,0,0,0,0,0,0,-0.0733,-0.0733,-0.0734,-0.0735,-0.0735,-0.0738,-0.0737,-0.0737,-0.0738,-0.0738,-0.0739,-0.0739,-0.0739,-0.0741,-0.0742,-0.0742,-0.0741,-0.0746,-0.0746,-0.0746,-0.0747,-0.0747,-0.0747,0,0,0,0,0,-0.0732,-0.0734,-0.0734,-0.0734,-0.0736,-0.0738,-0.0738,-0.0738,-0.0738,-0.0739,-0.0739,-0.0739,-0.0742,-0.0741,-0.0742,-0.0743,-0.0746,-0.0746,-0.0746,-0.0747,-0.0747,-0.0747,0,0,0,0,0,0,-0.0732,-0.0734,-0.0734,-0.0736,-0.0737,-0.0738,-0.0739,-0.0739,-0.074,-0.074,-0.074,-0.074,-0.0742,-0.0743,-0.0742,-0.0745,-0.0744,-0.0744,-0.0744,-0.0744,-0.0745,-0.0744,-0.0741,0,0,0,0,0,-0.0733,-0.0734,-0.0735,-0.0736,-0.0737,-0.0738,-0.0738,-0.0739,-0.074,-0.074,-0.0741,-0.0742,-0.0743,-0.0744,-0.0745,-0.0747,-0.0747,-0.0748,-0.0748,-0.0748,-0.0748,-0.0749,-0.075,-0.0747,-0.0747,-0.0747,0,0,-0.0733,-0.0734,-0.0735,-0.0736,-0.0737,-0.0738,-0.0738,-0.0739,-0.074,-0.074,-0.0742,-0.0743,-0.0744,-0.0746,-0.0746,-0.0746,-0.0749,-0.0748,-0.0748,-0.0748,-0.075,-0.075,-0.075,-0.0747,-0.0747,-0.0747,0,0,-0.0734,-0.0735,-0.0736,-0.0737,-0.0739,-0.0739,-0.074,-0.0741,-0.0741,-0.0743,-0.0743,-0.0744,-0.0746,-0.0747,-0.0748,-0.075,-0.075,-0.0751,-0.0752,-0.0753,-0.0753,-0.0753,-0.0754,-0.0754,-0.0751,-0.0751,-0.0751,0,-0.0734,-0.0736,-0.0737,-0.0738,-0.0739,-0.0739,-0.0741,-0.0742,-0.0743,-0.0744,-0.0744,-0.0747,-0.0747,-0.0749,-0.075,-0.0751,-0.0751,-0.075,-0.0753,-0.0753,-0.0753,-0.0754,-0.0754,-0.0751,-0.0751,-0.0751,-0.0751,0,-0.0736,-0.0738,-0.0739,-0.074,-0.0741,-0.0743,-0.0744,-0.0745,-0.0745,-0.0746,-0.0748,-0.0749,-0.075,-0.0751,-0.0751,-0.0753,-0.0753,-0.0753,-0.0752,-0.0754,-0.0754,-0.0755,-0.0751,-0.0751,-0.0751,-0.0751,0,0,-0.0737,-0.074,-0.074,-0.0741,-0.0743,-0.0744,-0.0745,-0.0747,-0.0748,-0.0749,-0.075,-0.0752,-0.0752,-0.0753,-0.0754,-0.0755,-0.0757,-0.0754,-0.0755,-0.0755,-0.0759,-0.0759,-0.0759,-0.0757,-0.0757,-0.0757,-0.0759,0,-0.0739,-0.0741,-0.0742,-0.0744,-0.0746,-0.0746,-0.0748,-0.0749,-0.075,-0.0751,-0.0752,-0.0754,-0.0753,-0.0754,-0.0755,-0.0756,-0.0757,-0.0756,-0.0758,-0.0758,-0.0757,-0.076,-0.076,-0.0762,-0.0759,-0.0759,-0.0759,0,-0.0741,-0.0742,-0.0744,-0.0746,-0.0747,-0.0748,-0.075,-0.0751,-0.0753,-0.0753,-0.0755,-0.0755,-0.0757,-0.0756,-0.0759,-0.0758,-0.0759,-0.0759,-0.0759,-0.0759,-0.0759,-0.076,-0.0762,-0.0763,-0.076,-0.076,-0.076,0,-0.0741,-0.0743,-0.0745,-0.0746,-0.0748,-0.0749,-0.075,-0.0752,-0.0753,-0.0754,-0.0755,-0.0757,-0.0758,-0.0759,-0.076,-0.076,-0.0763,-0.0762,-0.0763,-0.0763,-0.0764,-0.0763,-0.0766,-0.0764,-0.0764,-0.0764,-0.0764,0,-0.0742,-0.0744,-0.0746,-0.0747,-0.0748,-0.075,-0.0751,-0.0752,-0.0754,-0.0755,-0.0756,-0.0757,-0.0759,-0.076,-0.0761,-0.0763,-0.0763,-0.0764,-0.0764,-0.0764,-0.0764,-0.0764,-0.0764,-0.0764,-0.0764,-0.0764,-0.0764,0,-0.0743,-0.0744,-0.0746,-0.0748,-0.0749,-0.075,-0.0752,-0.0753,-0.0754,-0.0756,-0.0756,-0.0758,-0.076,-0.0761,-0.0764,-0.0764,-0.0766,-0.0767,-0.0766,-0.0766,-0.0767,-0.0767,-0.077,-0.077,-0.0768,-0.0768,-0.0768,0,-0.0743,-0.0745,-0.0747,-0.0748,-0.0749,-0.0751,-0.0752,-0.0753,-0.0754,-0.0756,-0.0757,-0.0759,-0.0761,-0.0764,-0.0766,-0.0767,-0.0768,-0.0769,-0.0768,-0.0768,-0.0768,-0.0767,-0.0768,-0.0769,-0.0769,-0.0769,-0.0769,0,-0.0745,-0.0745,-0.0747,-0.0749,-0.075,-0.0752,-0.0753,-0.0754,-0.0756,-0.0757,-0.0759,-0.076,-0.0763,-0.0765,-0.0767,-0.0768,-0.0769,-0.0769,-0.0769,-0.0769,-0.0768,-0.0769,-0.0766,-0.0769,-0.0769,-0.0769,-0.0769,-0.0769,-0.0745,-0.0746,-0.0748,-0.075,-0.0751,-0.0753,-0.0754,-0.0756,-0.0757,-0.076,-0.076,-0.0763,-0.0764,-0.0767,-0.0769,-0.077,-0.077,-0.0771,-0.0771,-0.0771,-0.0771,-0.0768,-0.0771,-0.0771,-0.0771,-0.0771,-0.0771,0,-0.0746,-0.0748,-0.0749,-0.0752,-0.0753,-0.0754,-0.0756,-0.0757,-0.0759,-0.076,-0.0762,-0.0765,-0.0767,-0.0769,-0.0771,-0.0772,-0.0772,-0.0772,-0.0772,-0.0772,-0.0771,-0.077,-0.0772,-0.0772,-0.0772,-0.0772,-0.0772,-0.0772,-0.0747,-0.0749,-0.075,-0.0753,-0.0754,-0.0756,-0.0757,-0.0759,-0.076,-0.0763,-0.0765,-0.0766,-0.0768,-0.077,-0.0772,-0.0773,-0.0773,-0.0774,-0.0774,-0.0773,-0.0772,-0.0772,-0.0772,-0.0774,-0.0774,-0.0776,-0.0776,-0.0776]}]]